Location: Newark
(40.3500°N, 15.2333°E)
Time: 19:41:35
(UTC+00:00)

Vanguard 1 - Pass Details

Date: 30 January 2020
Orbit: 650 x 3833 km, 34.2° (Epoch: 22 February)

Event Time Altitude Azimuth Distance (km) Brightness Sun altitude
Rises 19:17:56 0° 263° (W) 3,061 13.6 -35.1°
Reaches altitude 10° 19:20:37 10° 245° (WSW) 2,305 12.6 -35.6°
Enters shadow 19:23:14 18° 214° (SSW) 1,986 11.8 -36.1°
Maximum altitude 19:24:20 19° 199° (SSW) 2,029 - -36.3°
Drops below altitude 10° 19:29:15 10° 155° (SSE) 3,156 - -37.2°
Sets 19:33:49 0° 141° (SE) 4,683 - -38.1°
